�������l�o���
Date,Time,MP-1(��Sv/h),MP-2(��Sv/h),MP-3(��Sv/h),MP-4(��Sv/h),MP-5(��Sv/h),MP-6(��Sv/h),MP-7(��Sv/h),MP-8(��Sv/h),����,����(m/s),���J
2017/10/31,00:00,0.887,1.408,0.892,1.687,1.128,0.493,0.897,0.837,�k�k��,0.6,��
2017/10/31,00:10,0.885,1.409,0.891,1.685,1.129,0.493,0.896,0.835,�k,0.6,��
2017/10/31,00:20,0.885,1.408,0.891,1.686,1.127,0.493,0.897,0.839,�k��,1.4,��
2017/10/31,00:30,0.886,1.411,0.890,1.689,1.130,0.493,0.898,0.838,�k��,1.1,��
2017/10/31,00:40,0.884,1.410,0.890,1.687,1.129,0.492,0.899,0.838,-,CALM,��
2017/10/31,00:50,0.886,1.407,0.888,1.688,1.127,0.492,0.899,0.836,���쓌,0.9,��
2017/10/31,01:00,0.885,1.407,0.889,1.687,1.131,0.493,0.897,0.835,��쐼,1.7,��
2017/10/31,01:10,0.885,1.409,0.890,1.686,1.129,0.492,0.897,0.838,���쐼,1.5,��
2017/10/31,01:20,0.885,1.408,0.889,1.687,1.129,0.493,0.897,0.838,�k�k��,2.6,��
2017/10/31,01:30,0.885,1.407,0.890,1.688,1.129,0.493,0.899,0.837,�k�k��,3.2,��
2017/10/31,01:40,0.888,1.408,0.889,1.685,1.129,0.490,0.895,0.835,�k�k��,1.9,��
2017/10/31,01:50,0.884,1.409,0.891,1.685,1.130,0.492,0.898,0.836,�k�k��,2.0,��
2017/10/31,02:00,0.884,1.410,0.889,1.685,1.130,0.492,0.898,0.835,���k��,1.2,��
2017/10/31,02:10,0.884,1.408,0.890,1.686,1.128,0.492,0.897,0.837,�k��,1.2,��
2017/10/31,02:20,0.885,1.409,0.889,1.688,1.129,0.493,0.897,0.836,�k,2.2,��
2017/10/31,02:30,0.885,1.410,0.889,1.686,1.128,0.492,0.896,0.836,�k��,2.2,��
2017/10/31,02:40,0.885,1.409,0.890,1.686,1.130,0.492,0.898,0.835,�k,1.4,��
2017/10/31,02:50,0.883,1.409,0.888,1.682,1.131,0.492,0.897,0.835,�k,0.6,��
2017/10/31,03:00,0.887,1.409,0.890,1.685,1.130,0.493,0.896,0.837,��쐼,0.6,��
2017/10/31,03:10,0.884,1.407,0.889,1.686,1.132,0.493,0.896,0.836,��쐼,1.4,��
2017/10/31,03:20,0.884,1.410,0.892,1.689,1.132,0.492,0.899,0.837,��쐼,2.2,��
2017/10/31,03:30,0.885,1.409,0.888,1.686,1.132,0.494,0.896,0.835,��쐼,2.0,��
2017/10/31,03:40,0.885,1.410,0.891,1.687,1.131,0.491,0.895,0.834,��쐼,3.8,��
2017/10/31,03:50,0.886,1.408,0.889,1.686,1.130,0.491,0.897,0.836,��쐼,2.2,��
2017/10/31,04:00,0.886,1.409,0.889,1.687,1.131,0.493,0.895,0.836,��,1.2,��
2017/10/31,04:10,0.884,1.410,0.889,1.689,1.130,0.492,0.897,0.836,�쐼,0.8,��
2017/10/31,04:20,0.885,1.409,0.891,1.686,1.132,0.491,0.895,0.835,��쐼,2.3,��
2017/10/31,04:30,0.886,1.407,0.890,1.687,1.132,0.493,0.897,0.836,��쐼,2.6,��
2017/10/31,04:40,0.885,1.406,0.890,1.686,1.131,0.492,0.895,0.837,��쐼,3.7,��
2017/10/31,04:50,0.885,1.408,0.888,1.686,1.131,0.491,0.897,0.838,��쐼,4.4,��
2017/10/31,05:00,0.887,1.406,0.888,1.689,1.128,0.492,0.897,0.837,��,4.2,��
2017/10/31,05:10,0.884,1.408,0.890,1.686,1.132,0.491,0.896,0.837,��,4.0,��
2017/10/31,05:20,0.884,1.408,0.890,1.686,1.128,0.493,0.896,0.835,��쐼,3.1,��
2017/10/31,05:30,0.886,1.408,0.890,1.689,1.130,0.491,0.898,0.837,��쐼,2.9,��
2017/10/31,05:40,0.886,1.408,0.890,1.688,1.134,0.493,0.895,0.835,��쐼,3.8,��
2017/10/31,05:50,0.885,1.409,0.890,1.686,1.131,0.492,0.897,0.836,�쐼,4.4,��
2017/10/31,06:00,0.884,1.408,0.889,1.690,1.132,0.491,0.897,0.837,��쐼,5.2,��
2017/10/31,06:10,0.886,1.409,0.891,1.689,1.131,0.492,0.896,0.837,���쐼,3.9,��
2017/10/31,06:20,0.886,1.407,0.890,1.686,1.133,0.491,0.898,0.839,��,4.1,��
2017/10/31,06:30,0.885,1.412,0.890,1.686,1.129,0.493,0.897,0.837,��,5.5,��
2017/10/31,06:40,0.886,1.409,0.891,1.688,1.134,0.491,0.898,0.837,���쐼,4.9,��
2017/10/31,06:50,0.885,1.408,0.892,1.689,1.132,0.494,0.897,0.835,��,5.5,��
2017/10/31,07:00,0.886,1.411,0.889,1.687,1.131,0.491,0.899,0.836,��,5.2,��
2017/10/31,07:10,0.885,1.411,0.890,1.687,1.135,0.494,0.899,0.837,��,5.3,��
2017/10/31,07:20,0.885,1.412,0.887,1.689,1.133,0.492,0.898,0.836,��,4.4,��
2017/10/31,07:30,0.888,1.408,0.891,1.686,1.131,0.492,0.900,0.839,���쐼,4.7,��
2017/10/31,07:40,0.891,1.413,0.892,1.686,1.131,0.492,0.899,0.837,���쐼,4.3,��
2017/10/31,07:50,0.886,1.412,0.890,1.688,1.130,0.495,0.900,0.838,���쐼,2.5,��
2017/10/31,08:00,0.888,1.409,0.892,1.687,1.131,0.493,0.898,0.836,�쐼,2.2,��
2017/10/31,08:10,0.886,1.411,0.893,1.684,1.132,0.492,0.899,0.837,��쐼,2.0,��
2017/10/31,08:20,0.888,1.408,0.892,1.688,1.131,0.495,0.900,0.838,�쐼,2.2,��
2017/10/31,08:30,0.889,1.411,0.888,1.688,1.133,0.493,0.900,0.838,��쐼,3.0,��
2017/10/31,08:40,0.891,1.411,0.891,1.687,1.133,0.493,0.900,0.839,��쐼,2.0,��
2017/10/31,08:50,0.892,1.412,0.892,1.687,1.137,0.493,0.898,0.838,��,2.0,��
2017/10/31,09:00,0.890,1.413,0.892,1.685,1.134,0.493,0.900,0.837,��쓌,2.0,��
2017/10/31,09:10,0.891,1.411,0.892,1.688,1.137,0.494,0.897,0.839,��쓌,2.0,��
2017/10/31,09:20,0.888,1.415,0.894,1.691,1.136,0.495,0.897,0.837,���k��,1.7,��
2017/10/31,09:30,0.893,1.412,0.895,1.688,1.135,0.496,0.897,0.836,���쐼,3.6,��
2017/10/31,09:40,0.892,1.409,0.893,1.688,1.137,0.496,0.897,0.838,���쐼,2.6,��
2017/10/31,09:50,0.890,1.411,0.893,1.688,1.137,0.495,0.896,0.837,��,3.7,��
2017/10/31,10:00,0.891,1.410,0.894,1.691,1.139,0.495,0.897,0.839,��,4.8,��
2017/10/31,10:10,0.891,1.408,0.895,1.691,1.137,0.496,0.899,0.839,��,5.4,��
2017/10/31,10:20,0.890,1.412,0.895,1.692,1.135,0.493,0.897,0.841,���k��,5.3,��
2017/10/31,10:30,0.889,1.412,0.894,1.692,1.139,0.493,0.900,0.841,���k��,4.4,��
2017/10/31,10:40,0.884,1.411,0.893,1.694,1.139,0.494,0.899,0.841,��,5.1,��
2017/10/31,10:50,0.885,1.415,0.895,1.695,1.136,0.493,0.901,0.840,���k��,4.4,��
2017/10/31,11:00,0.884,1.409,0.895,1.693,1.135,0.493,0.898,0.844,��,6.6,��
2017/10/31,11:10,0.891,1.409,0.895,1.694,1.136,0.494,0.898,0.841,��,7.2,��
2017/10/31,11:20,0.890,1.408,0.893,1.695,1.139,0.492,0.899,0.841,��,7.0,��
2017/10/31,11:30,0.890,1.408,0.896,1.694,1.137,0.494,0.900,0.838,��,7.8,��
2017/10/31,11:40,0.891,1.413,0.895,1.698,1.137,0.494,0.900,0.840,��,4.0,��
2017/10/31,11:50,0.890,1.415,0.893,1.699,1.138,0.495,0.900,0.841,��,4.8,��
2017/10/31,12:00,0.892,1.417,0.895,1.697,1.139,0.496,0.899,0.839,���k��,6.1,��
2017/10/31,12:10,0.891,1.419,0.896,1.699,1.140,0.496,0.901,0.840,��,5.7,��
2017/10/31,12:20,0.892,1.417,0.894,1.699,1.140,0.496,0.900,0.842,��,4.9,��
2017/10/31,12:30,0.892,1.419,0.897,1.699,1.139,0.497,0.901,0.839,���k��,5.9,��
2017/10/31,12:40,0.892,1.419,0.896,1.699,1.138,0.496,0.901,0.838,�k��,4.6,��
2017/10/31,12:50,0.891,1.419,0.895,1.698,1.140,0.497,0.901,0.837,���k��,5.9,��
2017/10/31,13:00,0.895,1.419,0.896,1.697,1.143,0.497,0.902,0.837,���k��,4.9,��
2017/10/31,13:10,0.893,1.417,0.894,1.701,1.141,0.495,0.902,0.838,��,8.3,��
2017/10/31,13:20,0.892,1.417,0.895,1.700,1.141,0.496,0.901,0.838,��,7.2,��
2017/10/31,13:30,0.895,1.418,0.895,1.700,1.144,0.496,0.901,0.837,��,6.0,��
2017/10/31,13:40,0.894,1.420,0.896,1.702,1.140,0.496,0.900,0.837,��,7.8,��
2017/10/31,13:50,0.893,1.414,0.896,1.698,1.142,0.495,0.900,0.838,��,8.0,��
2017/10/31,14:00,0.893,1.419,0.898,1.700,1.141,0.495,0.900,0.838,��,7.6,��
2017/10/31,14:10,0.893,1.421,0.900,1.704,1.137,0.496,0.901,0.836,��,7.3,��
2017/10/31,14:20,0.893,1.418,0.894,1.701,1.139,0.494,0.899,0.837,��,7.5,��
2017/10/31,14:30,0.894,1.418,0.896,1.701,1.140,0.495,0.901,0.837,��,6.3,��
2017/10/31,14:40,0.894,1.421,0.898,1.704,1.139,0.497,0.900,0.838,���쐼,7.4,��
2017/10/31,14:50,0.893,1.419,0.896,1.701,1.141,0.495,0.900,0.838,��,7.2,��
2017/10/31,15:00,0.894,1.419,0.898,1.702,1.140,0.496,0.900,0.837,��,7.7,��
2017/10/31,15:10,0.893,1.418,0.896,1.704,1.140,0.496,0.901,0.839,��,7.4,��
2017/10/31,15:20,0.892,1.421,0.897,1.705,1.142,0.497,0.900,0.839,��,7.6,��
2017/10/31,15:30,0.894,1.421,0.898,1.701,1.140,0.498,0.901,0.838,��,8.2,��
2017/10/31,15:40,0.893,1.421,0.895,1.703,1.142,0.498,0.901,0.839,��,5.9,��
2017/10/31,15:50,0.895,1.421,0.898,1.704,1.140,0.497,0.900,0.839,��,5.5,��
2017/10/31,16:00,0.892,1.423,0.897,1.703,1.140,0.497,0.901,0.842,��,5.5,��
2017/10/31,16:10,0.891,1.423,0.897,1.702,1.140,0.498,0.901,0.840,��,5.6,��
2017/10/31,16:20,0.892,1.424,0.897,1.701,1.138,0.497,0.901,0.841,��,4.2,��
2017/10/31,16:30,0.894,1.423,0.899,1.704,1.138,0.498,0.903,0.840,��,4.8,��
2017/10/31,16:40,0.891,1.425,0.900,1.701,1.141,0.497,0.903,0.841,��,6.8,��
2017/10/31,16:50,0.894,1.425,0.897,1.700,1.142,0.498,0.904,0.840,��,6.6,��
2017/10/31,17:00,0.893,1.424,0.898,1.701,1.143,0.498,0.900,0.839,��,6.0,��
2017/10/31,17:10,0.894,1.426,0.898,1.706,1.144,0.497,0.900,0.839,��,6.5,��
2017/10/31,17:20,0.896,1.427,0.898,1.702,1.143,0.498,0.899,0.839,��,6.3,��
2017/10/31,17:30,0.894,1.426,0.898,1.701,1.142,0.496,0.902,0.838,��,6.4,��
2017/10/31,17:40,0.895,1.424,0.897,1.700,1.141,0.496,0.901,0.840,��,6.3,��
2017/10/31,17:50,0.893,1.425,0.896,1.699,1.143,0.498,0.901,0.838,���쐼,5.5,��
2017/10/31,18:00,0.892,1.425,0.898,1.702,1.140,0.498,0.900,0.839,��,5.4,��
2017/10/31,18:10,0.893,1.424,0.898,1.700,1.140,0.498,0.900,0.840,���쐼,5.8,��
2017/10/31,18:20,0.896,1.424,0.898,1.702,1.142,0.498,0.901,0.839,���쐼,6.3,��
2017/10/31,18:30,0.893,1.424,0.897,1.701,1.142,0.498,0.903,0.839,���쐼,7.2,��
2017/10/31,18:40,0.895,1.426,0.897,1.703,1.144,0.496,0.899,0.840,���쐼,6.8,��
2017/10/31,18:50,0.893,1.425,0.898,1.701,1.141,0.496,0.901,0.841,��,7.6,��
2017/10/31,19:00,0.893,1.424,0.897,1.703,1.143,0.496,0.901,0.840,���쐼,7.6,��
2017/10/31,19:10,0.891,1.426,0.896,1.699,1.141,0.496,0.904,0.838,��,7.9,��
2017/10/31,19:20,0.894,1.423,0.896,1.706,1.142,0.497,0.900,0.838,���쐼,7.5,��
2017/10/31,19:30,0.893,1.425,0.898,1.700,1.142,0.496,0.901,0.840,��,7.0,��
2017/10/31,19:40,0.895,1.423,0.895,1.700,1.142,0.497,0.900,0.840,��,6.7,��
2017/10/31,19:50,0.893,1.421,0.898,1.703,1.141,0.498,0.904,0.839,��,6.3,��
2017/10/31,20:00,0.894,1.422,0.898,1.701,1.141,0.496,0.901,0.840,��,7.8,��
2017/10/31,20:10,0.891,1.424,0.898,1.701,1.142,0.497,0.900,0.841,��,7.2,��
2017/10/31,20:20,0.894,1.426,0.896,1.701,1.142,0.496,0.899,0.840,��,8.0,��
2017/10/31,20:30,0.894,1.423,0.897,1.701,1.144,0.494,0.900,0.838,��,6.6,��
2017/10/31,20:40,0.894,1.424,0.898,1.701,1.143,0.497,0.902,0.840,��,5.5,��
2017/10/31,20:50,0.892,1.423,0.895,1.699,1.142,0.497,0.901,0.839,���쐼,4.9,��
2017/10/31,21:00,0.892,1.425,0.896,1.701,1.142,0.498,0.901,0.839,��,5.3,��
2017/10/31,21:10,0.892,1.423,0.895,1.699,1.142,0.496,0.901,0.839,��,4.9,��
2017/10/31,21:20,0.892,1.423,0.896,1.699,1.142,0.497,0.901,0.838,���쐼,5.3,��
2017/10/31,21:30,0.891,1.424,0.896,1.700,1.141,0.496,0.901,0.840,��,6.3,��
2017/10/31,21:40,0.894,1.425,0.896,1.699,1.142,0.496,0.901,0.842,���쐼,5.7,��
2017/10/31,21:50,0.891,1.421,0.897,1.700,1.140,0.496,0.902,0.839,��,6.3,��
2017/10/31,22:00,0.893,1.422,0.897,1.698,1.143,0.496,0.903,0.839,��,5.5,��
2017/10/31,22:10,0.892,1.423,0.897,1.697,1.139,0.496,0.901,0.839,��,7.1,��
2017/10/31,22:20,0.892,1.424,0.896,1.700,1.141,0.496,0.900,0.839,��,6.6,��
2017/10/31,22:30,0.892,1.423,0.898,1.700,1.142,0.497,0.902,0.841,���k��,8.0,��
2017/10/31,22:40,0.895,1.423,0.897,1.699,1.140,0.497,0.901,0.839,���k��,6.7,��
2017/10/31,22:50,0.892,1.423,0.896,1.700,1.145,0.494,0.900,0.840,��,5.5,��
2017/10/31,23:00,0.896,1.424,0.898,1.700,1.141,0.495,0.902,0.840,��,6.9,��
2017/10/31,23:10,0.893,1.423,0.896,1.702,1.142,0.496,0.900,0.840,��,6.6,��
2017/10/31,23:20,0.894,1.423,0.895,1.700,1.141,0.496,0.903,0.840,��,6.1,��
2017/10/31,23:30,0.894,1.423,0.897,1.699,1.142,0.496,0.901,0.839,��,5.7,��
2017/10/31,23:40,0.892,1.424,0.897,1.701,1.143,0.496,0.902,0.840,���k��,6.1,��
2017/10/31,23:50,0.893,1.424,0.896,1.705,1.143,0.497,0.902,0.840,��,7.5,��
